Back to catalog

FENGYUN 1C DEB

AlivePO
NORAD 29791·DEBRIS·🇨🇳 China

Launched May 10, 1999 from Taiyuan Satellite Launch Center

Loading…

Next Passes (next 24 hours)

TLE

FreshSource: Space-Track

Epoch: Sep 14, 2026, 01:49 UTC

1 29791U 99025CH  26257.07621100  .00003444  00000-0  69856-3 0  9994
2 29791  99.0291 287.2031 0036846 303.8041  80.3968 14.61543485 28644

Track FENGYUN 1C DEB in real time with AllMySat

Download on the App Store